GW3844 Weather Reports


time (UTC)temp
C
wind
direction
speed
KPH
gust
KPH
rain 1hr
cm
rain 24hr
cm
rain mn
cm
humidity
%
barometer
mb
20260505124748 24 132 1.6 1.6 0.00 0.56 0.56 99 1009.0
20260505124245 24 113 1.6 1.6 0.00 0.56 0.56 99 1008.9
20260505123741 25 132 1.6 3.2 0.00 0.56 0.56 99 1008.8
20260505123238 25 136 4.8 4.8 0.00 0.56 0.56 99 1008.7
20260505122734 25 92 0.0 1.6 0.00 0.56 0.56 99 1008.4
20260505122232 25 109 1.6 1.6 0.00 0.56 0.56 99 1008.4
20260505121728 25 103 0.0 0.0 0.00 0.56 0.56 99 1008.0
20260505121225 25 113 4.8 4.8 0.00 0.56 0.56 99 1007.9
20260505120721 25 123 3.2 3.2 0.00 0.56 0.56 99 1007.9
20260505120217 25 93 1.6 3.2 0.00 0.56 0.56 99 1007.9
20260505115716 25 116 3.2 3.2 0.00 0.56 0.56 99 1008.0
20260505115214 25 105 0.0 0.0 0.18 0.56 0.56 99 1007.9
20260505114711 25 80 0.0 0.0 0.48 0.56 0.56 99 1008.0
20260505114207 25 24 3.2 3.2 0.89 0.53 0.53 99 1008.1
20260505113703 25 51 1.6 3.2 0.61 0.48 0.48 99 1008.4
20260505113200 25 50 3.2 4.8 0.13 0.41 0.41 97 1008.5
20260505112656 25 94 0.0 0.0 0.00 0.38 0.38 99 1008.4
20260505112155 25 106 3.2 3.2 0.00 0.38 0.38 97 1008.4
20260505111654 25 105 3.2 4.8 0.00 0.38 0.38 96 1008.3
20260505111150 25 107 1.6 1.6 0.00 0.38 0.38 97 1008.0
20260505110646 25 133 1.6 3.2 0.00 0.38 0.38 97 1008.0
20260505110144 25 148 6.4 6.4 0.00 0.38 0.38 96 1007.7
20260505102120 27 107 1.6 1.6 0.00 0.38 0.38 98 1006.5
20260505101618 27 124 3.2 3.2 0.18 0.38 0.38 98 1006.5
20260505101114 27 97 0.0 0.0 0.79 0.38 0.38 97 1006.2
20260505100610 27 110 1.6 1.6 2.11 0.36 0.36 90 1006.3
20260505100107 28 90 3.2 4.8 1.50 0.25 0.25 91 1006.7
20260505095603 30 95 0.0 1.6 0.13 0.03 0.03 86 1006.5
20260505095100 31 320 6.4 6.4 0.00 0.00 0.00 81 1006.2
20260505094556 31 103 0.0 1.6 0.00 0.00 0.00 76 1006.3
20260505094053 31 336 6.4 9.7 0.00 0.00 0.00 80 1006.3
20260505093549 32 36 3.2 4.8 0.00 0.00 0.00 79 1006.0
20260505093047 31 99 1.6 3.2 0.00 0.00 0.00 78 1006.2
20260505092544 32 262 6.4 9.7 0.00 0.00 0.00 77 1005.8
20260505092042 31 265 6.4 12.9 0.00 0.00 0.00 78 1005.9
20260505091539 31 10 3.2 3.2 0.00 0.00 0.00 78 1006.0
20260505091037 32 121 1.6 1.6 0.00 0.00 0.00 79 1005.9
20260505090535 32 3 3.2 4.8 0.00 0.00 0.00 76 1005.9
20260505090033 32 333 4.8 11.3 0.00 0.00 0.00 75 1006.3
20260505085530 32 130 1.6 3.2 0.00 0.00 0.00 75 1006.0
20260505085028 32 74 3.2 4.8 0.00 0.00 0.00 75 1006.1
20260505084526 32 146 4.8 6.4 0.00 0.00 0.00 74 1006.3
20260505084024 33 97 1.6 3.2 0.00 0.00 0.00 72 1006.1
20260505083521 33 209 6.4 9.7 0.00 0.00 0.00 71 1006.1
20260505083017 34 51 4.8 4.8 0.00 0.00 0.00 68 1005.7
20260505082513 34 244 3.2 3.2 0.00 0.00 0.00 67 1005.8
20260505082010 35 76 3.2 3.2 0.00 0.00 0.00 66 1005.8
20260505081506 35 316 3.2 3.2 0.00 0.00 0.00 66 1005.7
20260505081003 35 235 4.8 4.8 0.00 0.00 0.00 65 1006.0
20260505080500 35 166 3.2 3.2 0.00 0.00 0.00 66 1006.3
20260505075955 35 208 3.2 4.8 0.00 0.00 0.00 65 1006.4
20260505075452 35 34 3.2 9.7 0.00 0.00 0.00 67 1006.4
20260505074949 34 283 1.6 3.2 0.00 0.00 0.00 67 1006.6
20260505074447 35 240 1.6 1.6 0.00 0.00 0.00 62 1006.5
20260505073944 35 21 3.2 3.2 0.00 0.00 0.00 65 1006.5
20260505073441 33 102 1.6 3.2 0.00 0.00 0.00 67 1006.6
20260505072938 34 338 6.4 6.4 0.00 0.00 0.00 69 1007.1
20260505072434 34 126 3.2 4.8 0.00 0.00 0.00 71 1006.7
20260505071931 34 178 6.4 6.4 0.00 0.00 0.00 65 1006.6
20260505071427 33 280 4.8 4.8 0.00 0.00 0.00 69 1007.2
20260505070925 33 216 1.6 3.2 0.00 0.00 0.00 69 1006.8
20260505070421 33 333 3.2 4.8 0.00 0.00 0.00 66 1007.0
20260505065917 34 202 4.8 6.4 0.00 0.00 0.00 59 1007.2
20260505065414 35 152 3.2 3.2 0.00 0.00 0.00 58 1007.3
20260505064910 35 119 3.2 3.2 0.00 0.00 0.00 57 1007.2
20260505064408 35 48 0.0 1.6 0.00 0.00 0.00 58 1007.6
20260505063906 35 161 1.6 3.2 0.00 0.00 0.00 54 1007.5
20260505063402 35 98 0.0 1.6 0.00 0.00 0.00 53 1007.6
20260505062859 35 162 6.4 6.4 0.00 0.00 0.00 52 1007.9
20260505062356 35 117 3.2 3.2 0.00 0.00 0.00 52 1008.0
20260505061852 35 282 4.8 4.8 0.00 0.00 0.00 55 1008.0
20260505061351 35 86 1.6 1.6 0.00 0.00 0.00 62 1008.3
20260505060848 35 352 4.8 6.4 0.00 0.00 0.00 62 1008.3
20260505060345 35 104 1.6 1.6 0.00 0.00 0.00 58 1008.5
20260505055841 34 104 1.6 1.6 0.00 0.00 0.00 59 1008.3
20260505055337 35 106 3.2 3.2 0.00 0.00 0.00 55 1008.7
20260505054834 35 121 1.6 3.2 0.00 0.00 0.00 54 1008.7
20260505054331 35 79 3.2 3.2 0.00 0.00 0.00 59 1009.0
20260505053830 35 106 0.0 0.0 0.00 0.00 0.00 56 1009.1
20260505053326 35 32 8.0 9.7 0.00 0.00 0.00 59 1008.9
20260505052823 35 167 1.6 1.6 0.00 0.00 0.00 59 1009.0
20260505052320 34 110 1.6 1.6 0.00 0.00 0.00 62 1009.1
20260505051817 35 119 6.4 6.4 0.00 0.00 0.00 59 1009.2
20260505051314 34 101 0.0 1.6 0.00 0.00 0.00 66 1009.3
20260505050812 33 91 0.0 1.6 0.00 0.00 0.00 67 1009.2
20260505050311 33 73 1.6 1.6 0.00 0.00 0.00 68 1009.3
20260505041740 33 50 4.8 4.8 0.00 0.00 0.00 76 1010.0
20260505041237 32 94 0.0 0.0 0.00 0.00 0.00 75 1009.9
20260505040735 32 11 3.2 3.2 0.00 0.00 0.00 74 1010.1
20260505040232 31 144 4.8 6.4 0.00 0.00 0.00 79 1010.2
20260505035729 31 47 4.8 4.8 0.00 0.00 0.00 77 1010.1
20260505035225 32 47 6.4 9.7 0.00 0.00 0.00 75 1010.2
20260505034722 32 71 1.6 1.6 0.00 0.00 0.00 75 1010.5
20260505034219 31 93 0.0 0.0 0.00 0.00 0.00 77 1010.4
20260505033715 30 338 6.4 6.4 0.00 0.00 0.00 81 1010.6
20260505033213 31 44 3.2 4.8 0.00 0.00 0.00 83 1010.4
20260505032711 31 124 3.2 4.8 0.00 0.00 0.00 81 1010.8
20260505032207 31 54 4.8 4.8 0.00 0.00 0.00 85 1010.7
20260505031704 31 82 3.2 3.2 0.00 0.00 0.00 84 1010.8
20260505031200 31 301 4.8 4.8 0.00 0.00 0.00 78 1010.7
20260505030657 31 32 3.2 4.8 0.00 0.00 0.00 78 1010.7
20260505030153 30 75 0.0 1.6 0.00 0.00 0.00 83 1010.7
20260505025649 30 331 3.2 4.8 0.00 0.00 0.00 85 1010.8
20260505025148 30 67 3.2 4.8 0.00 0.00 0.00 84 1010.7
20260505024645 30 285 3.2 3.2 0.00 0.00 0.00 83 1011.1
20260505024142 30 87 1.6 1.6 0.00 0.00 0.00 84 1010.6
20260505023640 30 350 4.8 4.8 0.00 0.00 0.00 82 1010.7
20260505023137 30 344 4.8 4.8 0.00 0.00 0.00 84 1010.9
20260505022634 31 137 3.2 3.2 0.00 0.00 0.00 82 1010.9
20260505022131 30 86 0.0 1.6 0.00 0.00 0.00 82 1011.0
20260505021628 30 88 0.0 0.0 0.00 0.00 0.00 82 1011.0
20260505021125 30 93 1.6 1.6 0.00 0.00 0.00 83 1010.9
20260505020620 29 333 4.8 4.8 0.00 0.00 0.00 84 1010.9
20260505020117 28 270 3.2 4.8 0.00 0.00 0.00 83 1010.6
20260505015614 28 353 4.8 4.8 0.00 0.00 0.00 87 1010.7
20260505015110 28 354 4.8 6.4 0.00 0.00 0.00 87 1010.8
20260505014607 28 293 3.2 3.2 0.00 0.00 0.00 87 1010.9
20260505014104 28 277 4.8 4.8 0.00 0.00 0.00 87 1010.7
20260505013601 28 351 4.8 6.4 0.00 0.00 0.00 86 1010.8
20260505013059 28 84 3.2 3.2 0.00 0.00 0.00 88 1010.9
20260505012556 28 34 8.0 9.7 0.00 0.00 0.00 86 1010.9
20260505012053 28 324 6.4 9.7 0.00 0.00 0.00 87 1010.8
20260505011549 28 28 4.8 6.4 0.00 0.00 0.00 85 1010.9
20260505011047 28 43 3.2 3.2 0.00 0.00 0.00 85 1010.7
20260505010542 28 85 0.0 0.0 0.00 0.00 0.00 86 1010.9
20260505010038 27 74 6.4 9.7 0.00 0.00 0.00 87 1010.7
20260505005535 28 89 3.2 3.2 0.00 0.00 0.00 88 1010.5
20260505005032 28 50 3.2 4.8 0.00 0.00 0.00 86 1010.9
20260505004529 27 93 0.0 0.0 0.00 0.00 0.00 87 1010.7
20260505004026 27 90 0.0 0.0 0.00 0.00 0.00 88 1010.7
20260505003523 27 71 3.2 3.2 0.00 0.00 0.00 89 1010.5
20260505003021 27 67 1.6 1.6 0.00 0.00 0.00 90 1010.8
20260505002520 27 63 3.2 4.8 0.00 0.00 0.00 89 1010.6
20260505002015 27 70 1.6 3.2 0.00 0.00 0.00 88 1010.8
20260505001512 27 79 1.6 3.2 0.00 0.00 0.00 88 1010.4
20260505001009 26 68 1.6 1.6 0.00 0.00 0.00 91 1010.4
20260505000506 26 70 1.6 3.2 0.00 0.00 0.00 93 1010.6
20260505000004 25 79 1.6 1.6 0.00 0.00 0.00 95 1010.4
20260504235500 25 72 1.6 1.6 0.00 0.00 0.00 96 1010.5
20260504234956 25 80 0.0 1.6 0.00 0.00 0.00 96 1010.3
20260504234454 25 84 0.0 1.6 0.00 0.00 0.00 95 1010.3
20260504233950 25 75 3.2 3.2 0.00 0.00 0.00 96 1010.2
20260504233446 25 59 3.2 3.2 0.00 0.00 0.00 97 1010.0
20260504232943 25 52 3.2 3.2 0.00 0.00 0.00 97 1009.9
20260504232440 25 79 0.0 0.0 0.00 0.00 0.00 97 1009.9
20260504231938 25 82 1.6 1.6 0.00 0.00 0.00 98 1009.8
20260504231433 25 86 3.2 3.2 0.00 0.00 0.00 98 1010.0
20260504230930 25 65 3.2 3.2 0.00 0.00 0.00 98 1009.8
20260504230427 25 79 1.6 3.2 0.00 0.00 0.00 98 1009.8
20260504225926 24 95 3.2 3.2 0.00 0.00 0.00 98 1009.7
20260504225422 24 94 0.0 0.0 0.00 0.00 0.00 98 1009.5
20260504224919 24 96 1.6 1.6 0.00 0.00 0.00 99 1009.5
20260504224416 24 93 3.2 3.2 0.00 0.00 0.00 99 1009.2
20260504223913 24 66 1.6 1.6 0.00 0.00 0.00 99 1009.3
20260504223409 24 99 1.6 1.6 0.00 0.00 0.00 99 1009.4
20260504222905 24 86 0.0 0.0 0.00 0.00 0.00 99 1009.5
20260504222402 24 90 1.6 1.6 0.00 0.00 0.00 99 1009.1
20260504221900 24 97 0.0 0.0 0.00 0.00 0.00 99 1009.3
20260504221356 24 88 0.0 1.6 0.00 0.00 0.00 99 1009.4
20260504220854 24 80 0.0 0.0 0.00 0.00 0.00 99 1009.6
20260504220350 24 79 1.6 1.6 0.00 0.00 0.00 99 1009.9
20260504215848 24 93 0.0 0.0 0.00 0.00 0.00 99 1009.7
20260504215344 24 99 0.0 1.6 0.00 0.00 0.00 99 1009.6
20260504214840 24 81 1.6 3.2 0.00 0.00 0.00 99 1009.5
20260504214337 24 48 3.2 4.8 0.00 0.00 0.00 99 1009.6
20260504213834 24 81 1.6 1.6 0.00 0.00 0.00 99 1009.6
20260504213330 24 95 0.0 0.0 0.00 0.00 0.00 99 1009.5
20260504212827 24 90 0.0 0.0 0.00 0.00 0.00 99 1009.5
20260504212323 24 85 0.0 0.0 0.00 0.00 0.00 99 1009.5
20260504211822 24 85 0.0 0.0 0.00 0.00 0.00 99 1009.9
20260504211317 24 97 1.6 1.6 0.00 0.00 0.00 99 1009.8
20260504210815 24 92 0.0 0.0 0.00 0.00 0.00 99 1009.8
20260504210312 24 89 0.0 0.0 0.00 0.00 0.00 99 1009.6
20260504205809 24 91 0.0 1.6 0.00 0.00 0.00 99 1009.4
20260504205306 24 117 1.6 3.2 0.00 0.00 0.00 99 1009.5
20260504204805 24 87 0.0 1.6 0.00 0.00 0.00 99 1009.5
20260504204303 24 79 0.0 0.0 0.00 0.00 0.00 99 1009.4
20260504203802 24 64 1.6 1.6 0.00 0.00 0.00 99 1009.4
20260504203258 24 96 0.0 0.0 0.00 0.00 0.00 99 1009.5
20260504202753 24 86 0.0 0.0 0.00 0.00 0.00 99 1009.3
20260504202250 24 84 0.0 0.0 0.00 0.00 0.00 99 1009.2
20260504201747 24 84 0.0 0.0 0.00 0.00 0.00 99 1009.2
20260504201244 23 86 0.0 0.0 0.00 0.00 0.00 99 1009.2
20260504200742 23 86 0.0 0.0 0.00 0.00 0.00 99 1009.2
20260504200238 23 88 0.0 0.0 0.00 0.00 0.00 99 1009.1
20260504195735 24 86 0.0 0.0 0.00 0.00 0.00 99 1009.2
20260504195230 24 102 0.0 0.0 0.00 0.00 0.00 99 1009.0
20260504194728 24 102 0.0 0.0 0.00 0.00 0.00 99 1009.1
20260504194223 24 107 0.0 0.0 0.00 0.00 0.00 99 1009.0
20260504193720 24 89 0.0 0.0 0.00 0.00 0.00 99 1008.9
20260504193218 24 86 0.0 0.0 0.00 0.00 0.00 99 1009.1
20260504192716 24 81 0.0 0.0 0.00 0.00 0.00 99 1009.0
20260504192213 25 90 0.0 0.0 0.00 0.00 0.00 99 1008.9
20260504191712 24 86 0.0 0.0 0.00 0.00 0.00 99 1008.8
20260504191209 24 84 0.0 0.0 0.00 0.00 0.00 99 1009.0
20260504190704 24 104 1.6 3.2 0.00 0.00 0.00 99 1008.8
20260504190200 24 111 1.6 1.6 0.00 0.00 0.00 99 1009.1
20260504185657 24 100 0.0 0.0 0.00 0.00 0.00 99 1008.9
20260504185153 24 89 0.0 0.0 0.00 0.00 0.00 99 1009.2
20260504184650 24 81 0.0 0.0 0.00 0.00 0.00 99 1009.3
20260504184145 24 71 1.6 1.6 0.00 0.00 0.00 99 1009.3
20260504183642 24 73 0.0 0.0 0.00 0.00 0.00 99 1009.4
20260504183139 25 91 0.0 0.0 0.00 0.00 0.00 99 1009.5
20260504182637 25 94 0.0 0.0 0.00 0.00 0.00 99 1009.5
20260504182134 25 87 0.0 0.0 0.00 0.00 0.00 99 1009.3
20260504181632 25 85 0.0 0.0 0.00 0.00 0.00 99 1009.6
20260504181129 25 80 0.0 0.0 0.00 0.00 0.00 99 1009.7
20260504180628 25 91 1.6 1.6 0.00 0.00 0.00 99 1009.5
20260504180127 25 84 0.0 0.0 0.00 0.00 0.00 99 1009.8
20260504175623 25 89 0.0 0.0 0.00 0.00 0.00 99 1009.8
20260504175120 25 77 0.0 0.0 0.00 0.00 0.00 98 1009.8
20260504174619 25 88 0.0 0.0 0.00 0.00 0.00 98 1010.0
20260504174114 25 82 1.6 1.6 0.00 0.00 0.00 98 1010.1
20260504173611 25 74 1.6 1.6 0.00 0.00 0.00 98 1010.3
20260504173109 25 88 0.0 0.0 0.00 0.00 0.00 98 1010.1
20260504172605 25 87 0.0 0.0 0.00 0.00 0.00 99 1010.2
20260504172102 25 69 1.6 1.6 0.00 0.00 0.00 99 1010.1
20260504171558 25 68 1.6 1.6 0.00 0.00 0.00 99 1010.2
20260504171056 25 87 0.0 0.0 0.00 0.00 0.00 98 1010.3
20260504170551 25 87 0.0 0.0 0.00 0.00 0.00 98 1010.2
20260504150924 26 108 1.6 3.2 0.00 0.30 0.30 92 1011.0
20260504150421 26 99 1.6 3.2 0.00 0.30 0.30 91 1011.3
20260504140847 27 112 1.6 1.6 0.00 0.30 0.30 89 1010.4
20260504140343 27 116 1.6 1.6 0.00 0.30 0.30 90 1010.5
20260504130812 27 91 0.0 0.0 0.00 0.30 0.30 89 1009.7
20260504130308 27 101 0.0 0.0 0.00 0.30 0.30 89 1009.8